Location: Unspecified
(0.0000°N, 0.0000°E)
Time: 20:33:37
(UTC+00:00)

STARLINK-32412 - Visible Passes

Search period start: 10 November 2025 00:00
Search period end: 20 November 2025 00:00
Orbit: 474 x 476 km, 53.2° (Epoch: 08 November)

Date Brightness Start Highest point End Pass type
(mag) Time Alt. Az. Time Alt. Az. Time Alt. Az.
10 Nov 6.8 03:16:39 10° ESE 03:16:39 10° ESE 03:16:42 10° ESE visible
10 Nov 5.5 04:50:48 11° WSW 04:51:13 11° SW 04:52:26 10° SW visible
11 Nov 5.7 04:23:06 12° SSW 04:23:06 12° SSW 04:23:46 10° SSW visible
